| time (UTC) | temp C | wind direction | speed KPH | gust KPH | rain 1hr cm | rain 24hr cm | rain mn cm | humidity % | barometer mb |
| 20260507142507 | 12 | 315 | 1.6 | 16.1 | 0.00 | 0.58 | 0.00 | 61 | 1007.6 |
| 20260507142003 | 13 | 5 | 6.4 | 16.1 | 0.00 | 0.58 | 0.00 | 61 | 1007.6 |
| 20260507141519 | 13 | 50 | 3.2 | 11.3 | 0.00 | 0.58 | 0.00 | 63 | 1007.6 |
| 20260507141003 | 13 | 290 | 3.2 | 11.3 | 0.00 | 0.58 | 0.00 | 66 | 1007.6 |
| 20260507140506 | 13 | 279 | 3.2 | 12.9 | 0.00 | 0.58 | 0.00 | 67 | 1007.5 |
| 20260507140020 | 12 | 245 | 4.8 | 16.1 | 0.00 | 0.58 | 0.00 | 65 | 1007.5 |
| 20260507135507 | 12 | 257 | 6.4 | 16.1 | 0.00 | 0.58 | 0.00 | 63 | 1007.6 |
| 20260507135003 | 13 | 269 | 8.0 | 14.5 | 0.00 | 0.58 | 0.00 | 62 | 1007.5 |
| 20260507134524 | 13 | 315 | 4.8 | 17.7 | 0.00 | 0.58 | 0.00 | 61 | 1007.6 |
| 20260507134005 | 13 | 24 | 3.2 | 17.7 | 0.00 | 0.58 | 0.00 | 59 | 1007.6 |
| 20260507133504 | 13 | 263 | 6.4 | 16.1 | 0.00 | 0.58 | 0.00 | 64 | 1007.5 |
| 20260507133026 | 13 | 33 | 4.8 | 14.5 | 0.00 | 0.58 | 0.00 | 63 | 1007.5 |
| 20260507132504 | 13 | 302 | 4.8 | 14.5 | 0.00 | 0.58 | 0.00 | 62 | 1007.6 |
| 20260507132010 | 13 | 260 | 4.8 | 12.9 | 0.00 | 0.58 | 0.00 | 64 | 1007.7 |
| 20260507131535 | 12 | 280 | 1.6 | 9.7 | 0.00 | 0.58 | 0.00 | 62 | 1007.7 |
| 20260507131004 | 13 | 237 | 3.2 | 14.5 | 0.00 | 0.58 | 0.00 | 68 | 1007.9 |
| 20260507130506 | 12 | 312 | 3.2 | 14.5 | 0.00 | 0.58 | 0.00 | 67 | 1007.9 |
| 20260507130025 | 12 | 340 | 8.0 | 14.5 | 0.00 | 0.58 | 0.00 | 65 | 1007.9 |
| 20260507125503 | 12 | 241 | 4.8 | 11.3 | 0.00 | 0.58 | 0.00 | 66 | 1007.9 |
| 20260507125007 | 12 | 173 | 3.2 | 12.9 | 0.00 | 0.58 | 0.00 | 69 | 1007.8 |
| 20260507124527 | 12 | 350 | 3.2 | 12.9 | 0.00 | 0.58 | 0.00 | 68 | 1007.8 |
| 20260507124006 | 12 | 252 | 4.8 | 12.9 | 0.00 | 0.58 | 0.00 | 70 | 1007.8 |
| 20260507123508 | 12 | 265 | 8.0 | 12.9 | 0.00 | 0.58 | 0.00 | 71 | 1007.8 |
| 20260507123026 | 12 | 170 | 1.6 | 6.4 | 0.00 | 0.58 | 0.00 | 69 | 1007.9 |
| 20260507122505 | 12 | 230 | 1.6 | 9.7 | 0.00 | 0.58 | 0.00 | 71 | 1007.9 |
| 20260507122009 | 11 | 308 | 1.6 | 9.7 | 0.00 | 0.58 | 0.00 | 72 | 1007.9 |
| 20260507121526 | 11 | 319 | 1.6 | 9.7 | 0.00 | 0.58 | 0.00 | 71 | 1007.9 |
| 20260507121005 | 11 | 342 | 1.6 | 8.0 | 0.00 | 0.58 | 0.00 | 75 | 1008.0 |
| 20260507120506 | 11 | 232 | 1.6 | 6.4 | 0.00 | 0.58 | 0.00 | 75 | 1007.9 |
| 20260507120038 | 11 | 310 | 1.6 | 6.4 | 0.00 | 0.58 | 0.00 | 77 | 1007.9 |
| 20260507115504 | 10 | 15 | 1.6 | 6.4 | 0.00 | 0.58 | 0.00 | 77 | 1008.0 |
| 20260507115007 | 10 | 20 | 1.6 | 6.4 | 0.00 | 0.58 | 0.00 | 78 | 1008.0 |
| 20260507114525 | 9 | 290 | 0.0 | 3.2 | 0.00 | 0.58 | 0.00 | 78 | 1007.9 |
| 20260507114003 | 9 | 301 | 1.6 | 3.2 | 0.00 | 0.58 | 0.00 | 79 | 1007.8 |
| 20260507113508 | 9 | 275 | 1.6 | 4.8 | 0.00 | 0.58 | 0.00 | 78 | 1007.9 |
| 20260507113006 | 9 | 231 | 0.0 | 3.2 | 0.00 | 0.58 | 0.00 | 78 | 1007.9 |
| 20260507112510 | 9 | 60 | 0.0 | 3.2 | 0.00 | 0.58 | 0.00 | 79 | 1007.8 |
| 20260507112014 | 9 | 132 | 0.0 | 3.2 | 0.00 | 0.58 | 0.00 | 80 | 1007.9 |
| 20260507111528 | 9 | 144 | 0.0 | 1.6 | 0.00 | 0.58 | 0.00 | 78 | 1007.8 |
| 20260507111006 | 9 | 117 | 0.0 | 3.2 | 0.00 | 0.58 | 0.00 | 82 | 1007.7 |
| 20260507110510 | 8 | 352 | 0.0 | 3.2 | 0.00 | 0.58 | 0.00 | 80 | 1007.7 |
| 20260507110009 | 8 | 360 | 0.0 | 3.2 | 0.00 | 0.58 | 0.00 | 80 | 1007.7 |
| 20260507105508 | 8 | 43 | 0.0 | 3.2 | 0.00 | 0.58 | 0.00 | 81 | 1007.9 |
| 20260507105007 | 8 | 55 | 0.0 | 3.2 | 0.00 | 0.58 | 0.00 | 82 | 1007.8 |
| 20260507104513 | 8 | 322 | 0.0 | 3.2 | 0.00 | 0.58 | 0.00 | 82 | 1007.7 |
| 20260507104004 | 8 | 230 | 0.0 | 3.2 | 0.00 | 0.58 | 0.00 | 82 | 1007.7 |
| 20260507103510 | 8 | 307 | 1.6 | 3.2 | 0.00 | 0.58 | 0.00 | 82 | 1007.5 |
| 20260507103010 | 8 | 59 | 1.6 | 3.2 | 0.00 | 0.58 | 0.00 | 84 | 1007.4 |
| 20260507102512 | 8 | 286 | 0.0 | 3.2 | 0.00 | 0.58 | 0.00 | 83 | 1007.3 |
| 20260507102008 | 8 | 270 | 0.0 | 4.8 | 0.00 | 0.58 | 0.00 | 82 | 1007.3 |
| 20260507101517 | 8 | 286 | 1.6 | 4.8 | 0.00 | 0.58 | 0.00 | 82 | 1007.4 |
| 20260507101006 | 8 | 274 | 0.0 | 11.3 | 0.00 | 0.58 | 0.00 | 82 | 1007.3 |
| 20260507100509 | 8 | 51 | 1.6 | 11.3 | 0.00 | 0.58 | 0.00 | 82 | 1007.3 |
| 20260507100022 | 8 | 309 | 1.6 | 4.8 | 0.00 | 0.58 | 0.00 | 83 | 1007.4 |
| 20260507095508 | 8 | 284 | 0.0 | 4.8 | 0.00 | 0.58 | 0.00 | 83 | 1007.2 |
| 20260507095010 | 8 | 286 | 3.2 | 6.4 | 0.00 | 0.58 | 0.00 | 82 | 1007.3 |
| 20260507094517 | 8 | 316 | 1.6 | 6.4 | 0.00 | 0.58 | 0.00 | 83 | 1007.4 |
| 20260507094006 | 8 | 272 | 1.6 | 6.4 | 0.00 | 0.58 | 0.00 | 83 | 1007.4 |
| 20260507093508 | 8 | 275 | 3.2 | 6.4 | 0.00 | 0.58 | 0.00 | 83 | 1007.7 |
| 20260507093018 | 8 | 304 | 3.2 | 4.8 | 0.00 | 0.58 | 0.00 | 83 | 1007.6 |
| 20260507092506 | 8 | 273 | 1.6 | 4.8 | 0.00 | 0.58 | 0.00 | 84 | 1007.6 |
| 20260507092009 | 8 | 288 | 3.2 | 6.4 | 0.00 | 0.58 | 0.00 | 83 | 1007.6 |
| 20260507091520 | 8 | 271 | 3.2 | 6.4 | 0.00 | 0.58 | 0.00 | 84 | 1007.6 |
| 20260507091008 | 8 | 259 | 3.2 | 6.4 | 0.00 | 0.58 | 0.00 | 84 | 1007.7 |
| 20260507090504 | 8 | 274 | 3.2 | 9.7 | 0.00 | 0.58 | 0.00 | 84 | 1007.5 |
| 20260507090023 | 8 | 234 | 3.2 | 19.3 | 0.00 | 0.58 | 0.00 | 84 | 1007.8 |
| 20260507085508 | 8 | 277 | 6.4 | 19.3 | 0.00 | 0.58 | 0.00 | 85 | 1007.8 |
| 20260507085004 | 8 | 274 | 3.2 | 8.0 | 0.00 | 0.58 | 0.00 | 86 | 1007.8 |
| 20260507084521 | 8 | 281 | 0.0 | 3.2 | 0.00 | 0.58 | 0.00 | 86 | 1007.5 |
| 20260507084009 | 8 | 296 | 1.6 | 3.2 | 0.00 | 0.58 | 0.00 | 86 | 1007.5 |
| 20260507083507 | 8 | 258 | 1.6 | 4.8 | 0.00 | 0.58 | 0.00 | 86 | 1008.0 |
| 20260507083023 | 8 | 267 | 1.6 | 4.8 | 0.00 | 0.58 | 0.00 | 86 | 1007.6 |
| 20260507082506 | 8 | 240 | 1.6 | 3.2 | 0.00 | 0.58 | 0.00 | 86 | 1007.4 |
| 20260507082004 | 8 | 271 | 0.0 | 1.6 | 0.00 | 0.58 | 0.00 | 85 | 1007.5 |
| 20260507081539 | 8 | 271 | 0.0 | 3.2 | 0.00 | 0.58 | 0.00 | 84 | 1007.4 |
| 20260507081008 | 8 | 271 | 1.6 | 4.8 | 0.00 | 0.58 | 0.00 | 82 | 1007.4 |
| 20260507080503 | 8 | 273 | 1.6 | 4.8 | 0.00 | 0.58 | 0.00 | 82 | 1007.6 |
| 20260507080026 | 9 | 342 | 0.0 | 4.8 | 0.00 | 0.58 | 0.00 | 81 | 1007.3 |
| 20260507075512 | 9 | 298 | 1.6 | 4.8 | 0.00 | 0.58 | 0.00 | 79 | 1007.2 |
| 20260507075010 | 9 | 321 | 1.6 | 6.4 | 0.00 | 0.58 | 0.00 | 79 | 1007.1 |
| 20260507074545 | 9 | 340 | 3.2 | 6.4 | 0.00 | 0.58 | 0.00 | 79 | 1007.3 |
| 20260507074010 | 9 | 274 | 1.6 | 12.9 | 0.00 | 0.58 | 0.00 | 80 | 1007.3 |
| 20260507073506 | 10 | 311 | 3.2 | 12.9 | 0.00 | 0.58 | 0.00 | 80 | 1007.3 |
| 20260507073024 | 10 | 227 | 4.8 | 14.5 | 0.00 | 0.58 | 0.00 | 80 | 1007.6 |
| 20260507072510 | 10 | 254 | 4.8 | 14.5 | 0.00 | 0.58 | 0.00 | 81 | 1007.4 |
| 20260507072007 | 10 | 289 | 4.8 | 11.3 | 0.00 | 0.58 | 0.00 | 80 | 1007.1 |
| 20260507071529 | 10 | 275 | 3.2 | 6.4 | 0.00 | 0.58 | 0.00 | 80 | 1006.9 |
| 20260507071012 | 10 | 296 | 1.6 | 6.4 | 0.00 | 0.58 | 0.00 | 80 | 1006.8 |
| 20260507070507 | 10 | 267 | 3.2 | 4.8 | 0.00 | 0.58 | 0.00 | 81 | 1006.9 |
| 20260507070026 | 10 | 234 | 1.6 | 6.4 | 0.00 | 0.58 | 0.00 | 83 | 1006.7 |
| 20260507065510 | 10 | 310 | 0.0 | 6.4 | 0.00 | 0.58 | 0.00 | 83 | 1006.5 |
| 20260507065006 | 10 | 304 | 1.6 | 6.4 | 0.00 | 0.58 | 0.00 | 84 | 1006.9 |
| 20260507064527 | 10 | 293 | 1.6 | 4.8 | 0.00 | 0.58 | 0.00 | 84 | 1006.7 |
| 20260507064009 | 10 | 266 | 0.0 | 4.8 | 0.00 | 0.58 | 0.00 | 85 | 1006.3 |
| 20260507063507 | 10 | 296 | 0.0 | 4.8 | 0.00 | 0.58 | 0.00 | 85 | 1006.2 |
| 20260507063014 | 10 | 297 | 1.6 | 11.3 | 0.00 | 0.58 | 0.00 | 85 | 1006.6 |
| 20260507062503 | 10 | 317 | 4.8 | 11.3 | 0.00 | 0.58 | 0.00 | 84 | 1006.6 |
| 20260507062003 | 10 | 248 | 3.2 | 6.4 | 0.00 | 0.58 | 0.00 | 85 | 1006.6 |
| 20260507061506 | 10 | 281 | 1.6 | 6.4 | 0.00 | 0.58 | 0.00 | 85 | 1006.2 |
| 20260507061007 | 10 | 324 | 1.6 | 11.3 | 0.00 | 0.58 | 0.00 | 85 | 1006.4 |
| 20260507060504 | 10 | 266 | 3.2 | 11.3 | 0.00 | 0.58 | 0.00 | 87 | 1006.6 |
| 20260507060008 | 10 | 300 | 1.6 | 4.8 | 0.00 | 0.58 | 0.00 | 87 | 1006.4 |
| 20260507055504 | 10 | 276 | 1.6 | 4.8 | 0.00 | 0.58 | 0.00 | 87 | 1006.6 |
| 20260507055002 | 11 | 288 | 0.0 | 1.6 | 0.00 | 0.58 | 0.00 | 86 | 1006.5 |
| 20260507054514 | 11 | 288 | 0.0 | 6.4 | 0.00 | 0.58 | 0.00 | 86 | 1006.6 |
| 20260507054008 | 11 | 300 | 0.0 | 6.4 | 0.00 | 0.58 | 0.00 | 85 | 1007.0 |
| 20260507053504 | 11 | 5 | 0.0 | 4.8 | 0.00 | 0.58 | 0.00 | 86 | 1007.1 |
| 20260507053012 | 11 | 254 | 0.0 | 4.8 | 0.00 | 0.58 | 0.00 | 86 | 1007.2 |
| 20260507052507 | 11 | 291 | 1.6 | 4.8 | 0.00 | 0.58 | 0.00 | 87 | 1007.0 |
| 20260507052003 | 11 | 292 | 1.6 | 3.2 | 0.00 | 0.58 | 0.00 | 87 | 1007.2 |
| 20260507051514 | 11 | 282 | 1.6 | 3.2 | 0.00 | 0.58 | 0.00 | 87 | 1007.1 |
| 20260507051012 | 11 | 347 | 0.0 | 3.2 | 0.00 | 0.58 | 0.00 | 87 | 1006.8 |
| 20260507050503 | 11 | 258 | 0.0 | 4.8 | 0.00 | 0.58 | 0.00 | 86 | 1007.1 |
| 20260507050024 | 11 | 290 | 1.6 | 4.8 | 0.00 | 0.58 | 0.00 | 86 | 1007.1 |
| 20260507045508 | 11 | 289 | 1.6 | 3.2 | 0.00 | 0.58 | 0.00 | 87 | 1007.1 |
| 20260507045003 | 11 | 288 | 1.6 | 3.2 | 0.00 | 0.58 | 0.00 | 88 | 1007.0 |
| 20260507044516 | 11 | 320 | 0.0 | 3.2 | 0.00 | 0.58 | 0.00 | 89 | 1006.8 |
| 20260507044007 | 11 | 178 | 0.0 | 3.2 | 0.03 | 0.58 | 0.00 | 89 | 1006.5 |
| 20260507043504 | 11 | 185 | 0.0 | 3.2 | 0.03 | 0.58 | 0.00 | 89 | 1006.5 |
| 20260507043016 | 12 | 285 | 0.0 | 3.2 | 0.03 | 0.58 | 0.00 | 89 | 1006.6 |
| 20260507042507 | 12 | 285 | 0.0 | 3.2 | 0.03 | 0.58 | 0.00 | 88 | 1006.8 |
| 20260507042003 | 12 | 285 | 0.0 | 4.8 | 0.03 | 0.58 | 0.00 | 87 | 1006.6 |
| 20260507041517 | 12 | 285 | 0.0 | 4.8 | 0.03 | 0.58 | 0.00 | 87 | 1006.6 |
| 20260507041007 | 12 | 292 | 1.6 | 4.8 | 0.03 | 0.58 | 0.00 | 86 | 1006.7 |
| 20260507040503 | 12 | 331 | 0.0 | 6.4 | 0.03 | 0.58 | 0.00 | 86 | 1006.6 |
| 20260507040027 | 12 | 290 | 1.6 | 11.3 | 0.03 | 0.58 | 0.00 | 86 | 1006.8 |
| 20260507035502 | 12 | 288 | 4.8 | 11.3 | 0.03 | 0.58 | 0.58 | 85 | 1006.7 |
| 20260507035002 | 12 | 306 | 1.6 | 12.9 | 0.03 | 0.58 | 0.58 | 84 | 1006.7 |
| 20260507034521 | 12 | 244 | 6.4 | 12.9 | 0.03 | 0.58 | 0.58 | 1006.7 | |
| 20260507034002 | 13 | 289 | 3.2 | 14.5 | 0.00 | 0.56 | 0.56 | 1006.5 | |
| 20260507033502 | 13 | 284 | 3.2 | 14.5 | 0.00 | 0.56 | 0.56 | 1006.4 | |
| 20260507033021 | 13 | 261 | 1.6 | 9.7 | 0.00 | 0.56 | 0.56 | 88 | 1006.4 |
| 20260507032501 | 13 | 330 | 3.2 | 6.4 | 0.00 | 0.56 | 0.56 | 88 | 1006.2 |
| 20260507032005 | 13 | 302 | 0.0 | 3.2 | 0.00 | 0.56 | 0.56 | 89 | 1006.2 |
| 20260507031522 | 13 | 302 | 0.0 | 6.4 | 0.00 | 0.56 | 0.56 | 89 | 1006.0 |
| 20260507031003 | 13 | 302 | 1.6 | 11.3 | 0.00 | 0.56 | 0.56 | 88 | 1006.0 |
| 20260507030503 | 14 | 288 | 3.2 | 11.3 | 0.00 | 0.56 | 0.56 | 88 | 1005.9 |
| 20260507030023 | 14 | 290 | 1.6 | 11.3 | 0.00 | 0.56 | 0.56 | 88 | 1005.7 |
| 20260507025503 | 14 | 258 | 3.2 | 14.5 | 0.00 | 0.56 | 0.56 | 89 | 1005.7 |
| 20260507025006 | 15 | 305 | 6.4 | 20.9 | 0.00 | 0.56 | 0.56 | 90 | 1005.7 |
| 20260507024525 | 15 | 307 | 1.6 | 20.9 | 0.00 | 0.56 | 0.56 | 92 | 1005.8 |
| 20260507024002 | 15 | 236 | 6.4 | 11.3 | 0.00 | 0.56 | 0.56 | 92 | 1005.9 |
| 20260507023505 | 15 | 269 | 1.6 | 8.0 | 0.00 | 0.56 | 0.56 | 93 | 1005.8 |
| 20260507023028 | 15 | 288 | 3.2 | 11.3 | 0.00 | 0.56 | 0.56 | 93 | 1005.7 |
| 20260507022510 | 15 | 232 | 4.8 | 11.3 | 0.00 | 0.56 | 0.56 | 93 | 1005.7 |
| 20260507022005 | 15 | 263 | 1.6 | 6.4 | 0.00 | 0.56 | 0.56 | 93 | 1005.8 |
| 20260507021524 | 15 | 256 | 1.6 | 4.8 | 0.00 | 0.56 | 0.56 | 93 | 1005.8 |
| 20260507021002 | 15 | 274 | 0.0 | 3.2 | 0.00 | 0.56 | 0.56 | 93 | 1005.6 |
| 20260507020505 | 14 | 296 | 1.6 | 3.2 | 0.00 | 0.56 | 0.56 | 93 | 1005.5 |
| 20260507020027 | 14 | 144 | 0.0 | 3.2 | 0.00 | 0.56 | 0.56 | 92 | 1005.4 |
| 20260507015503 | 14 | 128 | 0.0 | 3.2 | 0.00 | 0.56 | 0.56 | 92 | 1005.4 |
| 20260507015006 | 15 | 140 | 0.0 | 3.2 | 0.00 | 0.56 | 0.56 | 92 | 1005.5 |
| 20260507014542 | 15 | 140 | 0.0 | 3.2 | 0.00 | 0.56 | 0.56 | 92 | 1005.5 |
| 20260507014004 | 15 | 144 | 0.0 | 3.2 | 0.00 | 0.56 | 0.56 | 92 | 1005.4 |
| 20260507013506 | 15 | 144 | 0.0 | 3.2 | 0.00 | 0.56 | 0.56 | 92 | 1005.4 |
| 20260507013026 | 15 | 128 | 0.0 | 3.2 | 0.00 | 0.56 | 0.56 | 92 | 1005.5 |
| 20260507012503 | 15 | 63 | 0.0 | 3.2 | 0.00 | 0.56 | 0.56 | 92 | 1005.4 |
| 20260507012010 | 15 | 332 | 0.0 | 3.2 | 0.00 | 0.56 | 0.56 | 92 | 1005.4 |
| 20260507011504 | 15 | 71 | 0.0 | 3.2 | 0.00 | 0.56 | 0.56 | 92 | 1005.5 |
| 20260507011010 | 15 | 71 | 0.0 | 3.2 | 0.00 | 0.56 | 0.56 | 92 | 1005.4 |
| 20260507010505 | 15 | 77 | 0.0 | 4.8 | 0.00 | 0.56 | 0.56 | 92 | 1005.4 |
| 20260507010009 | 15 | 61 | 1.6 | 4.8 | 0.00 | 0.56 | 0.56 | 92 | 1005.4 |
| 20260507005505 | 15 | 272 | 0.0 | 11.3 | 0.00 | 0.56 | 0.56 | 92 | 1005.4 |
| 20260507005010 | 15 | 63 | 0.0 | 11.3 | 0.00 | 0.56 | 0.56 | 92 | 1005.5 |
| 20260507004510 | 15 | 169 | 1.6 | 4.8 | 0.00 | 0.56 | 0.56 | 92 | 1005.5 |
| 20260507004010 | 15 | 272 | 0.0 | 4.8 | 0.00 | 0.56 | 0.56 | 92 | 1005.4 |
| 20260507003512 | 15 | 188 | 3.2 | 6.4 | 0.00 | 0.56 | 0.56 | 91 | 1005.3 |
| 20260507003008 | 15 | 240 | 1.6 | 6.4 | 0.00 | 0.56 | 0.56 | 91 | 1005.3 |
| 20260507002506 | 15 | 148 | 1.6 | 12.9 | 0.00 | 0.56 | 0.56 | 91 | 1005.2 |
| 20260507002010 | 15 | 290 | 1.6 | 12.9 | 0.00 | 0.56 | 0.56 | 91 | 1005.1 |
| 20260507001510 | 15 | 92 | 1.6 | 12.9 | 0.00 | 0.56 | 0.56 | 91 | 1005.0 |
| 20260507001007 | 15 | 190 | 1.6 | 12.9 | 0.00 | 0.56 | 0.56 | 91 | 1005.0 |
| 20260507000510 | 15 | 235 | 3.2 | 12.9 | 0.00 | 0.56 | 0.56 | 91 | 1005.0 |
| 20260507000012 | 15 | 142 | 1.6 | 11.3 | 0.00 | 0.56 | 0.56 | 91 | 1005.2 |
| 20260506235507 | 15 | 284 | 4.8 | 9.7 | 0.03 | 0.56 | 0.56 | 91 | 1005.2 |
| 20260506235008 | 15 | 223 | 0.0 | 11.3 | 0.05 | 0.56 | 0.56 | 91 | 1005.1 |
| 20260506234515 | 15 | 204 | 1.6 | 11.3 | 0.08 | 0.56 | 0.56 | 91 | 1005.1 |
| 20260506234009 | 15 | 233 | 3.2 | 6.4 | 0.08 | 0.56 | 0.56 | 91 | 1005.1 |
| 20260506233509 | 15 | 140 | 1.6 | 6.4 | 0.10 | 0.56 | 0.56 | 91 | 1005.0 |
| 20260506233027 | 15 | 207 | 1.6 | 8.0 | 0.10 | 0.56 | 0.56 | 91 | 1005.1 |
| 20260506232506 | 15 | 244 | 1.6 | 8.0 | 0.13 | 0.56 | 0.56 | 91 | 1005.1 |
| 20260506232010 | 15 | 291 | 0.0 | 6.4 | 0.15 | 0.56 | 0.56 | 91 | 1005.1 |
| 20260506231515 | 15 | 242 | 0.0 | 11.3 | 0.15 | 0.56 | 0.56 | 91 | 1005.1 |
| 20260506231008 | 15 | 62 | 3.2 | 11.3 | 0.15 | 0.56 | 0.56 | 91 | 1005.2 |
| 20260506230507 | 15 | 180 | 3.2 | 9.7 | 0.18 | 0.56 | 0.56 | 91 | 1005.1 |
| 20260506230017 | 15 | 263 | 0.0 | 8.0 | 0.18 | 0.56 | 0.56 | 91 | 1005.3 |
| 20260506225508 | 15 | 146 | 3.2 | 8.0 | 0.15 | 0.53 | 0.53 | 91 | 1005.2 |
| 20260506225003 | 15 | 11 | 1.6 | 6.4 | 0.13 | 0.51 | 0.51 | 91 | 1005.3 |
| 20260506224518 | 15 | 246 | 1.6 | 11.3 | 0.10 | 0.48 | 0.48 | 91 | 1005.3 |
| 20260506224006 | 15 | 140 | 1.6 | 9.7 | 0.13 | 0.48 | 0.48 | 91 | 1005.3 |
| 20260506223502 | 15 | 272 | 3.2 | 16.1 | 0.10 | 0.46 | 0.46 | 91 | 1005.4 |
| 20260506223020 | 15 | 205 | 3.2 | 16.1 | 0.13 | 0.46 | 0.46 | 91 | 1005.3 |
| 20260506222506 | 15 | 226 | 1.6 | 9.7 | 0.13 | 0.43 | 0.43 | 90 | 1005.2 |
| 20260506222006 | 15 | 234 | 3.2 | 12.9 | 0.10 | 0.41 | 0.41 | 90 | 1005.2 |
| 20260506221520 | 15 | 157 | 3.2 | 12.9 | 0.10 | 0.41 | 0.41 | 90 | 1005.3 |
| 20260506221014 | 15 | 278 | 4.8 | 17.7 | 0.10 | 0.41 | 0.41 | 90 | 1005.3 |
| 20260506220507 | 15 | 185 | 1.6 | 17.7 | 0.08 | 0.38 | 0.38 | 90 | 1005.4 |
| 20260506220024 | 15 | 263 | 6.4 | 24.1 | 0.08 | 0.38 | 0.38 | 90 | 1005.4 |
| 20260506215511 | 15 | 109 | 8.0 | 24.1 | 0.08 | 0.38 | 0.38 | 90 | 1005.3 |
| 20260506215006 | 15 | 215 | 3.2 | 12.9 | 0.08 | 0.38 | 0.38 | 90 | 1005.4 |
| 20260506214520 | 15 | 214 | 3.2 | 11.3 | 0.10 | 0.38 | 0.38 | 90 | 1005.4 |
| 20260506214009 | 15 | 151 | 4.8 | 12.9 | 0.08 | 0.36 | 0.36 | 90 | 1005.5 |
| 20260506213505 | 15 | 274 | 1.6 | 12.9 | 0.10 | 0.36 | 0.36 | 89 | 1005.5 |
| 20260506213023 | 15 | 238 | 1.6 | 11.3 | 0.10 | 0.33 | 0.33 | 89 | 1005.4 |
| 20260506212509 | 15 | 289 | 1.6 | 11.3 | 0.08 | 0.30 | 0.30 | 89 | 1005.4 |
| 20260506212006 | 15 | 74 | 3.2 | 11.3 | 0.10 | 0.30 | 0.30 | 89 | 1005.5 |
| 20260506211524 | 15 | 263 | 4.8 | 14.5 | 0.10 | 0.30 | 0.30 | 89 | 1005.6 |
| 20260506211010 | 15 | 16 | 3.2 | 14.5 | 0.10 | 0.30 | 0.30 | 89 | 1005.6 |
| 20260506210506 | 15 | 74 | 1.6 | 19.3 | 0.13 | 0.30 | 0.30 | 89 | 1005.7 |
| 20260506210028 | 15 | 190 | 4.8 | 20.9 | 0.13 | 0.30 | 0.30 | 89 | 1005.8 |
| 20260506205511 | 15 | 132 | 6.4 | 20.9 | 0.15 | 0.30 | 0.30 | 90 | 1005.8 |
| 20260506205007 | 15 | 127 | 1.6 | 12.9 | 0.15 | 0.30 | 0.30 | 89 | 1005.8 |
| 20260506204525 | 15 | 81 | 1.6 | 11.3 | 0.13 | 0.28 | 0.28 | 89 | 1005.9 |
| 20260506204009 | 15 | 75 | 1.6 | 12.9 | 0.13 | 0.28 | 0.28 | 89 | 1006.0 |
| 20260506203508 | 15 | 298 | 1.6 | 12.9 | 0.10 | 0.25 | 0.25 | 89 | 1006.0 |
| 20260506203023 | 15 | 262 | 3.2 | 11.3 | 0.08 | 0.23 | 0.23 | 88 | 1006.1 |
| 20260506202502 | 15 | 235 | 3.2 | 14.5 | 0.08 | 0.23 | 0.23 | 88 | 1006.0 |
| 20260506202008 | 16 | 238 | 3.2 | 20.9 | 0.05 | 0.20 | 0.20 | 87 | 1006.0 |
| 20260506201526 | 16 | 271 | 4.8 | 20.9 | 0.05 | 0.20 | 0.20 | 87 | 1006.1 |
| 20260506201003 | 16 | 160 | 4.8 | 17.7 | 0.05 | 0.20 | 0.20 | 87 | 1006.0 |
| 20260506200510 | 16 | 189 | 3.2 | 11.3 | 0.03 | 0.18 | 0.18 | 87 | 1006.0 |
| 20260506200025 | 16 | 157 | 3.2 | 16.1 | 0.03 | 0.18 | 0.18 | 86 | 1006.1 |
| 20260506195509 | 16 | 168 | 1.6 | 16.1 | 0.00 | 0.15 | 0.15 | 85 | 1006.1 |
| 20260506195006 | 16 | 238 | 9.7 | 14.5 | 0.03 | 0.15 | 0.15 | 86 | 1006.2 |
| 20260506194527 | 16 | 149 | 1.6 | 11.3 | 0.03 | 0.15 | 0.15 | 86 | 1006.2 |
| 20260506194007 | 16 | 314 | 4.8 | 11.3 | 0.05 | 0.15 | 0.15 | 85 | 1006.2 |
| 20260506193511 | 16 | 317 | 1.6 | 12.9 | 0.05 | 0.15 | 0.15 | 85 | 1006.2 |
| 20260506193031 | 16 | 222 | 4.8 | 19.3 | 0.08 | 0.15 | 0.15 | 85 | 1006.1 |
| 20260506192508 | 16 | 10 | 8.0 | 19.3 | 0.08 | 0.15 | 0.15 | 85 | 1006.1 |
| 20260506192010 | 16 | 67 | 4.8 | 19.3 | 0.10 | 0.15 | 0.15 | 86 | 1006.1 |
| 20260506191528 | 16 | 229 | 4.8 | 19.3 | 0.10 | 0.15 | 0.15 | 87 | 1006.1 |
| 20260506191010 | 16 | 295 | 1.6 | 8.0 | 0.10 | 0.15 | 0.15 | 88 | 1006.2 |
| 20260506190509 | 16 | 262 | 1.6 | 8.0 | 0.15 | 0.15 | 0.15 | 87 | 1006.1 |
| 20260506190008 | 16 | 190 | 0.0 | 4.8 | 0.15 | 0.15 | 0.15 | 87 | 1006.0 |
| 20260506185506 | 16 | 200 | 0.0 | 11.3 | 0.15 | 0.15 | 0.15 | 85 | 1006.1 |
| 20260506185009 | 16 | 265 | 3.2 | 11.3 | 0.13 | 0.13 | 0.13 | 85 | 1006.2 |
| 20260506184511 | 16 | 271 | 3.2 | 11.3 | 0.13 | 0.13 | 0.13 | 85 | 1006.3 |
| 20260506184006 | 17 | 237 | 4.8 | 20.9 | 0.10 | 0.10 | 0.10 | 83 | 1006.3 |
| 20260506183507 | 17 | 278 | 6.4 | 20.9 | 0.10 | 0.10 | 0.10 | 82 | 1006.5 |
| 20260506183013 | 17 | 302 | 8.0 | 17.7 | 0.08 | 0.08 | 0.08 | 81 | 1006.4 |
| 20260506182506 | 17 | 225 | 8.0 | 16.1 | 0.08 | 0.08 | 0.08 | 82 | 1006.5 |
| 20260506182009 | 17 | 244 | 1.6 | 12.9 | 0.05 | 0.05 | 0.05 | 82 | 1006.8 |
| 20260506181512 | 17 | 245 | 4.8 | 12.9 | 0.05 | 0.05 | 0.05 | 80 | 1006.8 |
| 20260506181010 | 18 | 282 | 3.2 | 17.7 | 0.05 | 0.05 | 0.05 | 77 | 1006.8 |
| 20260506180506 | 18 | 224 | 9.7 | 17.7 | 0.00 | 0.00 | 0.00 | 72 | 1007.0 |
| 20260506180012 | 19 | 294 | 4.8 | 16.1 | 0.00 | 0.00 | 0.00 | 67 | 1006.8 |
| 20260506175507 | 20 | 249 | 8.0 | 16.1 | 0.00 | 0.00 | 0.00 | 64 | 1006.8 |
| 20260506175003 | 20 | 275 | 3.2 | 11.3 | 0.00 | 0.00 | 0.00 | 61 | 1006.7 |
| 20260506174529 | 20 | 229 | 3.2 | 17.7 | 0.00 | 0.00 | 0.00 | 60 | 1006.7 |
| 20260506174010 | 21 | 274 | 4.8 | 19.3 | 0.00 | 0.00 | 0.00 | 59 | 1006.6 |
| 20260506173502 | 21 | 261 | 11.3 | 27.4 | 0.00 | 0.00 | 0.00 | 59 | 1006.5 |
| 20260506173016 | 21 | 211 | 14.5 | 30.6 | 0.00 | 0.00 | 0.00 | 57 | 1006.5 |
| 20260506172506 | 21 | 271 | 14.5 | 43.5 | 0.00 | 0.00 | 0.00 | 57 | 1006.6 |
| 20260506172008 | 21 | 262 | 6.4 | 43.5 | 0.00 | 0.00 | 0.00 | 58 | 1006.5 |
| 20260506171521 | 21 | 205 | 11.3 | 24.1 | 0.00 | 0.00 | 0.00 | 56 | 1006.4 |
| 20260506171006 | 21 | 283 | 6.4 | 20.9 | 0.00 | 0.00 | 0.00 | 55 | 1006.4 |
| 20260506170505 | 21 | 324 | 6.4 | 19.3 | 0.00 | 0.00 | 0.00 | 58 | 1006.4 |
| 20260506170026 | 22 | 254 | 8.0 | 19.3 | 0.00 | 0.00 | 0.00 | 57 | 1006.6 |
| 20260506165513 | 21 | 284 | 9.7 | 17.7 | 0.00 | 0.00 | 0.00 | 56 | 1006.6 |
| 20260506165003 | 22 | 160 | 9.7 | 17.7 | 0.00 | 0.00 | 0.00 | 58 | 1006.7 |
| 20260506164518 | 21 | 321 | 4.8 | 14.5 | 0.00 | 0.00 | 0.00 | 58 | 1006.8 |
| 20260506164011 | 21 | 110 | 6.4 | 17.7 | 0.00 | 0.00 | 0.00 | 57 | 1006.8 |
| 20260506163503 | 21 | 228 | 8.0 | 17.7 | 0.00 | 0.00 | 0.00 | 60 | 1007.1 |
| 20260506163041 | 21 | 218 | 6.4 | 19.3 | 0.00 | 0.00 | 0.00 | 59 | 1006.9 |
| 20260506162512 | 21 | 352 | 8.0 | 19.3 | 0.00 | 0.00 | 0.00 | 59 | 1007.1 |
| 20260506162005 | 21 | 85 | 6.4 | 12.9 | 0.00 | 0.00 | 0.00 | 62 | 1007.1 |
| 20260506161524 | 21 | 240 | 3.2 | 12.9 | 0.00 | 0.00 | 0.00 | 62 | 1007.3 |
| 20260506161010 | 21 | 252 | 1.6 | 14.5 | 0.00 | 0.00 | 0.00 | 62 | 1007.2 |
| 20260506160506 | 20 | 296 | 6.4 | 14.5 | 0.00 | 0.00 | 0.00 | 65 | 1007.3 |
| 20260506160024 | 21 | 234 | 3.2 | 12.9 | 0.00 | 0.00 | 0.00 | 61 | 1007.5 |
| 20260506155503 | 20 | 279 | 6.4 | 12.9 | 0.00 | 0.00 | 0.00 | 63 | 1007.6 |
| 20260506155010 | 20 | 231 | 1.6 | 16.1 | 0.00 | 0.00 | 0.00 | 65 | 1007.7 |
| 20260506154526 | 20 | 117 | 4.8 | 16.1 | 0.00 | 0.00 | 0.00 | 64 | 1007.7 |
| 20260506154008 | 20 | 174 | 3.2 | 14.5 | 0.00 | 0.00 | 0.00 | 64 | 1007.9 |
| 20260506153506 | 20 | 203 | 3.2 | 14.5 | 0.00 | 0.00 | 0.00 | 64 | 1008.0 |
| 20260506153028 | 20 | 248 | 8.0 | 14.5 | 0.00 | 0.00 | 0.00 | 66 | 1008.1 |
| 20260506152505 | 20 | 303 | 3.2 | 14.5 | 0.00 | 0.00 | 0.00 | 66 | 1008.1 |
| 20260506152014 | 20 | 313 | 3.2 | 14.5 | 0.00 | 0.00 | 0.00 | 66 | 1008.3 |
| 20260506151524 | 20 | 283 | 6.4 | 22.5 | 0.00 | 0.00 | 0.00 | 65 | 1008.3 |
| 20260506151004 | 20 | 232 | 6.4 | 22.5 | 0.00 | 0.00 | 0.00 | 65 | 1008.5 |
| 20260506150506 | 20 | 152 | 8.0 | 20.9 | 0.00 | 0.00 | 0.00 | 65 | 1008.5 |
| 20260506150027 | 20 | 254 | 4.8 | 24.1 | 0.00 | 0.00 | 0.00 | 66 | 1008.6 |
| 20260506145508 | 20 | 194 | 9.7 | 25.7 | 0.00 | 0.00 | 0.00 | 65 | 1008.3 |
| 20260506145007 | 20 | 319 | 3.2 | 25.7 | 0.00 | 0.00 | 0.00 | 67 | 1008.3 |
| 20260506144527 | 19 | 148 | 8.0 | 19.3 | 0.00 | 0.00 | 0.00 | 66 | 1008.6 |
| 20260506144004 | 19 | 135 | 3.2 | 16.1 | 0.00 | 0.00 | 0.00 | 68 | 1008.6 |
| 20260506143510 | 19 | 124 | 6.4 | 16.1 | 0.00 | 0.00 | 0.00 | 67 | 1008.6 |
| 20260506143033 | 19 | 260 | 8.0 | 14.5 | 0.00 | 0.00 | 0.00 | 67 | 1008.5 |